Find Starlink 38318

NORAD ID: 100443 Int'l Des: 2026-193 Owner: SPXS Country: US Constellation: starlink operational

Aktuelle Ansicht

3D-Globus wird geladen...

About Starlink 38318

Starlink 38318 (NORAD 100443) is a starlink constellation satellite launched Aug 22, 2026 by SPXS of US. with a mass of 575.00 kg.

Nächste Überflüge

Passes for default location (London). Set your location on the main map for personalized predictions.

Höhenverlauf

Loading altitude history...

Zweizeiliger Elementsatz

1 A0443U 26193L 26248.22877708 .00246517 00000-0 11639-2 0 9992
2 A0443 69.9998 117.0195 0003619 276.9111 83.1679 15.82223301 3355
Epoch: 5. Sept. 2026 • Age: 9 hours

Aktueller Status

Höhe 328.2 km
Apogäum / Perigäum N/A
Geschwindigkeit 7.71 km/s
Subsatellitenpunkt 30.98°N, 77.25°W
Startdatum 22. Aug. 2026
Alter 14 days
Typ internet

Technische Details

Klassifizierung Payload
Masse 575.00 kg
Trockenmasse 530.00 kg
Gesamtmasse 575.00 kg
Länge 0.30 m
Durchmesser 4.10 m
Spannweite 29.00 m
Form Box + pan
Hersteller SPXS
Bus-Typ Starlink V2MO
Phasenstatus In Orbit
Besitzer/Staat SPXS/US

Most Searched